Location: Azul
(36.7830°S, 59.8500°W)
Time: 19:24:11
(UTC-03:00)

ISS - Pass Details

Date: 06 August 2020
Orbit: 418 x 420 km, 51.6° (Epoch: 08 August)

Event Time Altitude Azimuth Distance (km) Brightness Sun altitude
Exits shadow 06:08:12 11° 174° (S) 1,490 -1.0 -21.1°
Maximum altitude 06:08:55 11° 161° (SSE) 1,458 -0.9 -20.9°
Drops below altitude 10° 06:10:01 10° 142° (SE) 1,527 -0.5 -20.7°
Sets 06:13:29 0° 105° (ESE) 2,387 1.3 -20.0°
